TimePDT,TemperatureF,Dew PointF,Humidity,Sea Level PressureIn,VisibilityMPH,Wind Direction,Wind SpeedMPH,Gust SpeedMPH,PrecipitationIn,Events,Conditions,WindDirDegrees,DateUTC
12:22 AM,39.2,39.2,100,30.17,10.0,North,5.8,-,N/A,,Overcast,350,2013-06-13 07:22:00
12:38 AM,39.2,39.2,100,30.17,10.0,North,6.9,-,N/A,,Overcast,350,2013-06-13 07:38:00
12:56 AM,39.9,39.0,97,30.16,10.0,Variable,5.8,-,N/A,,Overcast,0,2013-06-13 07:56:00
1:20 AM,39.2,39.2,100,30.17,1.8,NNW,5.8,-,N/A,,Overcast,340,2013-06-13 08:20:00
1:33 AM,39.2,39.2,100,30.17,3.0,Variable,4.6,-,N/A,,Overcast,0,2013-06-13 08:33:00
1:45 AM,39.2,39.2,100,30.17,1.8,Variable,4.6,-,N/A,,Overcast,0,2013-06-13 08:45:00
1:54 AM,39.2,39.2,100,30.17,1.0,North,3.5,-,N/A,,Mist,360,2013-06-13 08:54:00
1:56 AM,39.9,39.0,97,30.15,1.0,Variable,3.5,-,N/A,,Mist,0,2013-06-13 08:56:00
2:12 AM,39.2,39.2,100,30.17,0.8,Variable,3.5,-,N/A,,Mist,0,2013-06-13 09:12:00
2:19 AM,39.2,39.2,100,30.17,0.8,North,3.5,-,N/A,,Mist,350,2013-06-13 09:19:00
2:43 AM,39.2,39.2,100,30.18,1.5,Calm,Calm,-,N/A,,Overcast,0,2013-06-13 09:43:00
2:53 AM,39.2,39.2,100,30.18,0.8,Calm,Calm,-,N/A,,Mist,0,2013-06-13 09:53:00
2:56 AM,39.9,39.0,97,30.15,1.0,Variable,4.6,-,N/A,,Mist,0,2013-06-13 09:56:00
3:08 AM,39.2,39.2,100,30.18,0.8,Variable,3.5,-,N/A,,Mist,0,2013-06-13 10:08:00
3:20 AM,39.2,39.2,100,30.18,1.2,Calm,Calm,-,N/A,,Overcast,0,2013-06-13 10:20:00
3:43 AM,39.2,39.2,100,30.18,0.8,Variable,3.5,-,N/A,,Mist,0,2013-06-13 10:43:00
3:50 AM,39.2,39.2,100,30.18,1.5,Calm,Calm,-,N/A,,Overcast,0,2013-06-13 10:50:00
3:56 AM,39.0,39.0,100,30.15,1.0,Calm,Calm,-,N/A,,Mist,0,2013-06-13 10:56:00
4:04 AM,39.2,39.2,100,30.18,0.8,Calm,Calm,-,N/A,,Mist,0,2013-06-13 11:04:00
4:56 AM,39.9,39.0,97,30.16,0.8,Calm,Calm,-,N/A,,Mist,0,2013-06-13 11:56:00
5:33 AM,39.2,39.2,100,30.19,0.2,Variable,3.5,-,N/A,Fog,Fog,0,2013-06-13 12:33:00
5:56 AM,37.9,37.9,100,30.17,0.2,North,4.6,-,N/A,Fog,Fog,350,2013-06-13 12:56:00
6:56 AM,37.9,37.9,100,30.19,0.2,NNW,4.6,-,N/A,Fog,Fog,340,2013-06-13 13:56:00
7:48 AM,39.2,37.4,93,30.20,1.0,Calm,Calm,-,N/A,,Overcast,0,2013-06-13 14:48:00
7:51 AM,39.2,39.2,100,30.20,2.0,Calm,Calm,-,N/A,,Overcast,0,2013-06-13 14:51:00
7:56 AM,39.0,39.0,100,30.20,10.0,Calm,Calm,-,N/A,,Overcast,0,2013-06-13 14:56:00
8:03 AM,39.2,37.4,93,30.20,10.0,Calm,Calm,-,N/A,,Overcast,0,2013-06-13 15:03:00
8:45 AM,44.6,39.2,81,30.20,10.0,Calm,Calm,-,N/A,,Overcast,0,2013-06-13 15:45:00
8:56 AM,43.0,39.9,89,30.21,10.0,Calm,Calm,-,N/A,,Mostly Cloudy,0,2013-06-13 15:56:00
9:12 AM,42.8,39.2,87,30.21,10.0,Calm,Calm,-,N/A,,Mostly Cloudy,0,2013-06-13 16:12:00
9:40 AM,44.6,39.2,81,30.22,10.0,Calm,Calm,-,N/A,,Overcast,0,2013-06-13 16:40:00
9:56 AM,45.0,39.0,80,30.22,10.0,Calm,Calm,-,N/A,,Overcast,0,2013-06-13 16:56:00
10:14 AM,44.6,39.2,81,30.22,10.0,Calm,Calm,-,N/A,,Overcast,0,2013-06-13 17:14:00
10:56 AM,50.0,39.9,68,30.22,10.0,Variable,3.5,-,N/A,,Mostly Cloudy,0,2013-06-13 17:56:00
11:56 AM,52.0,39.9,63,30.22,10.0,Variable,3.5,-,N/A,,Partly Cloudy,0,2013-06-13 18:56:00
12:42 PM,50.0,39.2,66,30.24,10.0,Variable,3.5,-,N/A,,Mostly Cloudy,0,2013-06-13 19:42:00
12:56 PM,52.0,39.9,63,30.23,10.0,Variable,5.8,-,N/A,,Mostly Cloudy,0,2013-06-13 19:56:00
1:16 PM,51.8,39.2,62,30.25,10.0,Variable,4.6,-,N/A,,Mostly Cloudy,0,2013-06-13 20:16:00
1:40 PM,55.4,41.0,58,30.25,10.0,Variable,4.6,-,N/A,,Scattered Clouds,0,2013-06-13 20:40:00
1:56 PM,54.0,39.9,59,30.24,10.0,Variable,6.9,-,N/A,,Partly Cloudy,0,2013-06-13 20:56:00
2:56 PM,57.0,39.9,53,30.22,10.0,Variable,5.8,-,N/A,,Scattered Clouds,0,2013-06-13 21:56:00
3:56 PM,57.0,37.9,49,30.23,10.0,Variable,4.6,-,N/A,,Clear,0,2013-06-13 22:56:00
4:56 PM,55.9,37.9,51,30.23,10.0,Calm,Calm,-,N/A,,Partly Cloudy,0,2013-06-13 23:56:00
5:56 PM,54.0,37.9,55,30.25,10.0,Calm,Calm,-,N/A,,Partly Cloudy,0,2013-06-14 00:56:00
6:56 PM,53.1,37.9,57,30.25,10.0,Variable,3.5,-,N/A,,Scattered Clouds,0,2013-06-14 01:56:00
7:56 PM,50.0,39.0,66,30.26,10.0,Variable,3.5,-,N/A,,Clear,0,2013-06-14 02:56:00
8:56 PM,46.0,39.9,79,30.27,10.0,Variable,4.6,-,N/A,,Clear,0,2013-06-14 03:56:00
9:56 PM,45.0,39.9,82,30.28,10.0,North,10.4,17.3,N/A,,Partly Cloudy,360,2013-06-14 04:56:00
10:56 PM,43.0,41.0,93,30.27,10.0,North,9.2,-,N/A,,Clear,10,2013-06-14 05:56:00
11:56 PM,42.1,39.9,92,30.26,10.0,North,10.4,-,N/A,,Clear,10,2013-06-14 06:56:00